Joanne Reinauer — WCW8841 — position and weather

sailwx.info

Track history (hours):
 
Tides and Currents Weather Stations Pressure Air Temp Water Temp Dewpoint Dewpoint Depression Visibility Wind Speed Wind Dir Waves Ship Positions

Joanne Reinauer

Owner: REINAUER TRANSPORTATION CO.LLC., STATEN ISLAND, NY. More information available from US FCC via Universal Licensing System and Coast Guard Vessel Documentation Center.

Last reported at 2017-Nov-20 00:30 UTC. Time now 2017-Nov-20 12:17 UTC.
Position N 40°36' W 074°12'.

Length 28 m; draft 4.4 m.

Type: Tug. MMSI: 366238690.

Date/timePositionNaut miles runAvg speedWind from/ knotsBaromVisibWave heightAir tempDewpointWater temp
2017-Nov-20 00:30N 40°36' W 074°12'0 0.0
2017-Nov-20 00:00N 40°36' W 074°12'0 0.0
2017-Nov-19 23:30N 40°36' W 074°12'0 0.0
2017-Nov-19 23:00N 40°36' W 074°12'0 0.0
2017-Nov-19 22:30N 40°36' W 074°12'0 0.0
2017-Nov-19 22:00N 40°36' W 074°12'0 0.0
2017-Nov-19 21:27N 40°36' W 074°12'0 0.0
2017-Nov-19 21:00N 40°36' W 074°12'0 0.0
2017-Nov-19 20:30N 40°36' W 074°12'0 0.0
2017-Nov-19 19:57N 40°36' W 074°12'0 0.0
2017-Nov-19 19:30N 40°36' W 074°12'0 0.0
2017-Nov-19 19:00N 40°36' W 074°12'0 0.0
2017-Nov-19 18:27N 40°36' W 074°12'0 0.0
2017-Nov-19 18:00N 40°36' W 074°12'0 0.0
2017-Nov-19 17:30N 40°36' W 074°12'0 0.0
2017-Nov-19 17:00N 40°36' W 074°12'0 0.0
2017-Nov-19 16:30N 40°36' W 074°12'0 0.0
2017-Nov-19 16:00N 40°36' W 074°12'0 0.0
2017-Nov-19 15:30N 40°36' W 074°12'0 0.0
2017-Nov-19 15:00N 40°36' W 074°12'0 0.0
2017-Nov-19 14:30N 40°36' W 074°12'0 0.0
2017-Nov-19 13:57N 40°36' W 074°12'0 0.0
2017-Nov-19 13:30N 40°36' W 074°12'0 0.0
2017-Nov-19 13:00N 40°36' W 074°12'0 0.0
2017-Nov-19 12:18N 40°36' W 074°12'0 0.0
2017-Nov-19 12:00N 40°36' W 074°12'0 0.0
2017-Nov-19 11:30N 40°36' W 074°12'0 0.0
2017-Nov-19 11:00N 40°36' W 074°12'0 0.0
2017-Nov-19 10:31N 40°36' W 074°12'2 3.7
2017-Nov-19 10:00N 40°38' W 074°12'0 0.5
2017-Nov-19 09:30N 40°38' W 074°12'0 0.0
2017-Nov-19 08:59N 40°38' W 074°12'1 1.6
2017-Nov-19 08:30N 40°37' W 074°12'1 2.7
2017-Nov-19 08:00N 40°36' W 074°12'0 0.0
2017-Nov-19 07:31N 40°36' W 074°12'0 0.0
2017-Nov-19 07:00N 40°36' W 074°12'0 0.0
2017-Nov-19 06:30N 40°36' W 074°12'0 0.0
2017-Nov-19 06:01N 40°36' W 074°12'0 0.0
2017-Nov-19 05:30N 40°36' W 074°12'0 0.0
2017-Nov-19 05:00N 40°36' W 074°12'0 0.0
2017-Nov-19 04:30N 40°36' W 074°12'1 2.1
2017-Nov-19 04:00N 40°37' W 074°12'1 2.0
2017-Nov-19 03:30N 40°38' W 074°12'0 0.5
2017-Nov-19 03:00N 40°38' W 074°12'4 7.7
2017-Nov-19 02:30N 40°39' W 074°07'4 7.6
2017-Nov-19 02:01N 40°40' W 074°03'4 8.4
2017-Nov-19 01:30N 40°44' W 074°01'3 5.8
2017-Nov-19 01:01N 40°47' W 073°60'0 0.0
2017-Nov-19 00:28N 40°47' W 073°60'0 0.0
2017-Nov-18 23:58N 40°47' W 073°60'0 0.2
2017-Nov-18 23:28N 40°47' W 073°60'0 0.1
2017-Nov-18 22:58N 40°47' W 073°60'0 0.1
2017-Nov-18 22:28N 40°47' W 073°60'0 0.0
2017-Nov-18 21:58N 40°47' W 073°60'0 0.0
2017-Nov-18 21:28N 40°47' W 073°60'0 0.0
2017-Nov-18 20:58N 40°47' W 073°60'0 0.0
2017-Nov-18 20:30N 40°47' W 073°60'0 0.1
2017-Nov-18 20:00N 40°47' W 073°60'1 1.3
2017-Nov-18 19:30N 40°46' W 074°00'3 6.4
2017-Nov-18 19:00N 40°43' W 074°01'4 7.0
2017-Nov-18 18:30N 40°40' W 074°03'4 7.9
2017-Nov-18 18:00N 40°39' W 074°08'0 0.2
2017-Nov-18 17:30N 40°38' W 074°08'0 0.0
2017-Nov-18 17:00N 40°38' W 074°08'0 0.0
2017-Nov-18 16:30N 40°38' W 074°08'0 0.0
2017-Nov-18 16:00N 40°38' W 074°08'0 0.0
2017-Nov-18 15:30N 40°38' W 074°08'0 0.0
2017-Nov-18 15:00N 40°38' W 074°08'0 0.0
2017-Nov-18 14:30N 40°38' W 074°08'0 0.0
2017-Nov-18 14:00N 40°38' W 074°08'0 0.0
2017-Nov-18 13:30N 40°38' W 074°08'0 0.0
2017-Nov-18 13:00N 40°38' W 074°08'0 0.0
2017-Nov-18 12:31N 40°38' W 074°08'0 0.0
2017-Nov-18 12:00N 40°38' W 074°08'0 0.0
2017-Nov-18 11:31N 40°38' W 074°08'0 0.0
2017-Nov-18 11:00N 40°38' W 074°08'0 0.0
2017-Nov-18 10:30N 40°38' W 074°08'0 0.0
2017-Nov-18 10:00N 40°38' W 074°08'0 0.0
2017-Nov-18 09:30N 40°38' W 074°08'0 0.0
2017-Nov-18 09:00N 40°38' W 074°08'0 0.0
2017-Nov-18 08:30N 40°38' W 074°08'0 0.0
2017-Nov-18 08:01N 40°38' W 074°08'0 0.0
2017-Nov-18 07:31N 40°38' W 074°08'0 0.0
2017-Nov-18 07:00N 40°38' W 074°08'0 0.0
2017-Nov-18 06:30N 40°38' W 074°08'0 0.0
2017-Nov-18 06:00N 40°38' W 074°08'0 0.0
2017-Nov-18 05:30N 40°38' W 074°08'0 0.0
2017-Nov-18 05:00N 40°38' W 074°08'0 0.0
2017-Nov-18 04:30N 40°38' W 074°08'0 0.0
2017-Nov-18 04:00N 40°38' W 074°08'0 0.0
2017-Nov-18 03:30N 40°38' W 074°08'0 0.0
2017-Nov-18 03:00N 40°38' W 074°08'0 0.0
2017-Nov-18 02:30N 40°38' W 074°08'0 0.0
2017-Nov-18 02:00N 40°38' W 074°08'0 0.0
2017-Nov-18 01:30N 40°38' W 074°08'0 0.0
2017-Nov-18 01:00N 40°38' W 074°08'0 0.0
2017-Nov-18 00:30N 40°38' W 074°08'0 0.0
2017-Nov-18 00:00N 40°38' W 074°08'0 0.0
2017-Nov-17 23:30N 40°38' W 074°08'0 0.0
2017-Nov-17 23:00N 40°38' W 074°08'0 0.0
2017-Nov-17 22:30N 40°38' W 074°08'0 0.0
2017-Nov-17 22:00N 40°38' W 074°08'0 0.0
2017-Nov-17 21:30N 40°38' W 074°08'0 0.0
2017-Nov-17 21:00N 40°38' W 074°08'0 0.0
2017-Nov-17 20:00N 40°38' W 074°08'0 0.0
2017-Nov-17 19:31N 40°38' W 074°08'0 0.0
2017-Nov-17 19:00N 40°38' W 074°08'0 0.0
2017-Nov-17 18:30N 40°38' W 074°08'0 0.0
2017-Nov-17 18:00N 40°38' W 074°08'  
Track history (hours):
 
Tides and Currents Weather Stations Pressure Air Temp Water Temp Dewpoint Dewpoint Depression Visibility Wind Speed Wind Dir Waves Ship Positions

Joanne Reinauer

Owner: REINAUER TRANSPORTATION CO.LLC., STATEN ISLAND, NY. More information available from US FCC via Universal Licensing System and Coast Guard Vessel Documentation Center.

Last reported at 2017-Nov-20 00:30 UTC. Time now 2017-Nov-20 12:17 UTC.
Position N 40°36' W 074°12'.

Length 28 m; draft 4.4 m.

Type: Tug. MMSI: 366238690.

Date/timePositionNaut miles runAvg speedWind from/ knotsBaromVisibWave heightAir tempDewpointWater temp
2017-Nov-20 00:30N 40°36' W 074°12'0 0.0
2017-Nov-20 00:00N 40°36' W 074°12'0 0.0
2017-Nov-19 23:30N 40°36' W 074°12'0 0.0
2017-Nov-19 23:00N 40°36' W 074°12'0 0.0
2017-Nov-19 22:30N 40°36' W 074°12'0 0.0
2017-Nov-19 22:00N 40°36' W 074°12'0 0.0
2017-Nov-19 21:27N 40°36' W 074°12'0 0.0
2017-Nov-19 21:00N 40°36' W 074°12'0 0.0
2017-Nov-19 20:30N 40°36' W 074°12'0 0.0
2017-Nov-19 19:57N 40°36' W 074°12'0 0.0
2017-Nov-19 19:30N 40°36' W 074°12'0 0.0
2017-Nov-19 19:00N 40°36' W 074°12'0 0.0
2017-Nov-19 18:27N 40°36' W 074°12'0 0.0
2017-Nov-19 18:00N 40°36' W 074°12'0 0.0
2017-Nov-19 17:30N 40°36' W 074°12'0 0.0
2017-Nov-19 17:00N 40°36' W 074°12'0 0.0
2017-Nov-19 16:30N 40°36' W 074°12'0 0.0
2017-Nov-19 16:00N 40°36' W 074°12'0 0.0
2017-Nov-19 15:30N 40°36' W 074°12'0 0.0
2017-Nov-19 15:00N 40°36' W 074°12'0 0.0
2017-Nov-19 14:30N 40°36' W 074°12'0 0.0
2017-Nov-19 13:57N 40°36' W 074°12'0 0.0
2017-Nov-19 13:30N 40°36' W 074°12'0 0.0
2017-Nov-19 13:00N 40°36' W 074°12'0 0.0
2017-Nov-19 12:18N 40°36' W 074°12'0 0.0
2017-Nov-19 12:00N 40°36' W 074°12'0 0.0
2017-Nov-19 11:30N 40°36' W 074°12'0 0.0
2017-Nov-19 11:00N 40°36' W 074°12'0 0.0
2017-Nov-19 10:31N 40°36' W 074°12'2 3.7
2017-Nov-19 10:00N 40°38' W 074°12'0 0.5
2017-Nov-19 09:30N 40°38' W 074°12'0 0.0
2017-Nov-19 08:59N 40°38' W 074°12'1 1.6
2017-Nov-19 08:30N 40°37' W 074°12'1 2.7
2017-Nov-19 08:00N 40°36' W 074°12'0 0.0
2017-Nov-19 07:31N 40°36' W 074°12'0 0.0
2017-Nov-19 07:00N 40°36' W 074°12'0 0.0
2017-Nov-19 06:30N 40°36' W 074°12'0 0.0
2017-Nov-19 06:01N 40°36' W 074°12'0 0.0
2017-Nov-19 05:30N 40°36' W 074°12'0 0.0
2017-Nov-19 05:00N 40°36' W 074°12'0 0.0
2017-Nov-19 04:30N 40°36' W 074°12'1 2.1
2017-Nov-19 04:00N 40°37' W 074°12'1 2.0
2017-Nov-19 03:30N 40°38' W 074°12'0 0.5
2017-Nov-19 03:00N 40°38' W 074°12'4 7.7
2017-Nov-19 02:30N 40°39' W 074°07'4 7.6
2017-Nov-19 02:01N 40°40' W 074°03'4 8.4
2017-Nov-19 01:30N 40°44' W 074°01'3 5.8
2017-Nov-19 01:01N 40°47' W 073°60'0 0.0
2017-Nov-19 00:28N 40°47' W 073°60'0 0.0
2017-Nov-18 23:58N 40°47' W 073°60'0 0.2
2017-Nov-18 23:28N 40°47' W 073°60'0 0.1
2017-Nov-18 22:58N 40°47' W 073°60'0 0.1
2017-Nov-18 22:28N 40°47' W 073°60'0 0.0
2017-Nov-18 21:58N 40°47' W 073°60'0 0.0
2017-Nov-18 21:28N 40°47' W 073°60'0 0.0
2017-Nov-18 20:58N 40°47' W 073°60'0 0.0
2017-Nov-18 20:30N 40°47' W 073°60'0 0.1
2017-Nov-18 20:00N 40°47' W 073°60'1 1.3
2017-Nov-18 19:30N 40°46' W 074°00'3 6.4
2017-Nov-18 19:00N 40°43' W 074°01'4 7.0
2017-Nov-18 18:30N 40°40' W 074°03'4 7.9
2017-Nov-18 18:00N 40°39' W 074°08'0 0.2
2017-Nov-18 17:30N 40°38' W 074°08'0 0.0
2017-Nov-18 17:00N 40°38' W 074°08'0 0.0
2017-Nov-18 16:30N 40°38' W 074°08'0 0.0
2017-Nov-18 16:00N 40°38' W 074°08'0 0.0
2017-Nov-18 15:30N 40°38' W 074°08'0 0.0
2017-Nov-18 15:00N 40°38' W 074°08'0 0.0
2017-Nov-18 14:30N 40°38' W 074°08'0 0.0
2017-Nov-18 14:00N 40°38' W 074°08'0 0.0
2017-Nov-18 13:30N 40°38' W 074°08'0 0.0
2017-Nov-18 13:00N 40°38' W 074°08'0 0.0
2017-Nov-18 12:31N 40°38' W 074°08'0 0.0
2017-Nov-18 12:00N 40°38' W 074°08'0 0.0
2017-Nov-18 11:31N 40°38' W 074°08'0 0.0
2017-Nov-18 11:00N 40°38' W 074°08'0 0.0
2017-Nov-18 10:30N 40°38' W 074°08'0 0.0
2017-Nov-18 10:00N 40°38' W 074°08'0 0.0
2017-Nov-18 09:30N 40°38' W 074°08'0 0.0
2017-Nov-18 09:00N 40°38' W 074°08'0 0.0
2017-Nov-18 08:30N 40°38' W 074°08'0 0.0
2017-Nov-18 08:01N 40°38' W 074°08'0 0.0
2017-Nov-18 07:31N 40°38' W 074°08'0 0.0
2017-Nov-18 07:00N 40°38' W 074°08'0 0.0
2017-Nov-18 06:30N 40°38' W 074°08'0 0.0
2017-Nov-18 06:00N 40°38' W 074°08'0 0.0
2017-Nov-18 05:30N 40°38' W 074°08'0 0.0
2017-Nov-18 05:00N 40°38' W 074°08'0 0.0
2017-Nov-18 04:30N 40°38' W 074°08'0 0.0
2017-Nov-18 04:00N 40°38' W 074°08'0 0.0
2017-Nov-18 03:30N 40°38' W 074°08'0 0.0
2017-Nov-18 03:00N 40°38' W 074°08'0 0.0
2017-Nov-18 02:30N 40°38' W 074°08'0 0.0
2017-Nov-18 02:00N 40°38' W 074°08'0 0.0
2017-Nov-18 01:30N 40°38' W 074°08'0 0.0
2017-Nov-18 01:00N 40°38' W 074°08'0 0.0
2017-Nov-18 00:30N 40°38' W 074°08'0 0.0
2017-Nov-18 00:00N 40°38' W 074°08'0 0.0
2017-Nov-17 23:30N 40°38' W 074°08'0 0.0
2017-Nov-17 23:00N 40°38' W 074°08'0 0.0
2017-Nov-17 22:30N 40°38' W 074°08'0 0.0
2017-Nov-17 22:00N 40°38' W 074°08'0 0.0
2017-Nov-17 21:30N 40°38' W 074°08'0 0.0
2017-Nov-17 21:00N 40°38' W 074°08'0 0.0
2017-Nov-17 20:00N 40°38' W 074°08'0 0.0
2017-Nov-17 19:31N 40°38' W 074°08'0 0.0
2017-Nov-17 19:00N 40°38' W 074°08'0 0.0
2017-Nov-17 18:30N 40°38' W 074°08'0 0.0
2017-Nov-17 18:00N 40°38' W 074°08'  

Dump ship's entire track history